| time (UTC) | temp F | wind direction | speed knots | gust knots | rain 1hr in | rain 24hr in | rain mn in | humidity % | barometer mb |
| 20260904220003 | 87 | 202 | 14.8 | 21.7 | 0.00 | 0.00 | 0.00 | 14 | 1020.4 |
| 20260904215503 | 87 | 195 | 12.2 | 18.2 | 0.00 | 0.00 | 0.00 | 14 | 1020.4 |
| 20260904214504 | 87 | 207 | 11.3 | 18.2 | 0.00 | 0.00 | 0.00 | 15 | 1020.5 |
| 20260904214003 | 87 | 202 | 9.6 | 15.6 | 0.00 | 0.00 | 0.00 | 16 | 1020.5 |
| 20260904213504 | 87 | 197 | 11.3 | 17.4 | 0.00 | 0.00 | 0.00 | 16 | 1020.6 |
| 20260904213004 | 87 | 201 | 8.7 | 20.9 | 0.00 | 0.00 | 0.00 | 17 | 1020.6 |
| 20260904212504 | 86 | 193 | 9.6 | 14.8 | 0.00 | 0.00 | 0.00 | 16 | 1020.7 |
| 20260904212003 | 86 | 192 | 12.2 | 17.4 | 0.00 | 0.00 | 0.00 | 17 | 1020.6 |
| 20260904211504 | 86 | 210 | 10.4 | 24.3 | 0.00 | 0.00 | 0.00 | 16 | 1020.6 |
| 20260904211003 | 87 | 183 | 10.4 | 14.8 | 0.00 | 0.00 | 0.00 | 17 | 1020.7 |
| 20260904210503 | 86 | 223 | 10.4 | 15.6 | 0.00 | 0.00 | 0.00 | 17 | 1020.6 |
| 20260904205005 | 87 | 205 | 11.3 | 19.1 | 0.00 | 0.00 | 0.00 | 16 | 1020.7 |
| 20260904203504 | 86 | 208 | 11.3 | 17.4 | 0.00 | 0.00 | 0.00 | 17 | 1020.7 |
| 20260904203003 | 86 | 206 | 12.2 | 19.1 | 0.00 | 0.00 | 0.00 | 16 | 1020.8 |
| 20260904202504 | 86 | 193 | 12.2 | 17.4 | 0.00 | 0.00 | 0.00 | 17 | 1020.8 |
| 20260904202003 | 85 | 199 | 13.0 | 18.2 | 0.00 | 0.00 | 0.00 | 16 | 1020.8 |
| 20260904201503 | 85 | 192 | 13.9 | 19.1 | 0.00 | 0.00 | 0.00 | 17 | 1020.8 |
| 20260904201004 | 85 | 203 | 11.3 | 17.4 | 0.00 | 0.00 | 0.00 | 18 | 1021.0 |
| 20260904200503 | 85 | 208 | 11.3 | 18.2 | 0.00 | 0.00 | 0.00 | 17 | 1021.1 |
| 20260904200004 | 85 | 199 | 8.7 | 18.2 | 0.00 | 0.00 | 0.00 | 18 | 1021.3 |
| 20260904195504 | 85 | 198 | 10.4 | 17.4 | 0.00 | 0.00 | 0.00 | 18 | 1021.4 |
| 20260904194503 | 84 | 227 | 10.4 | 17.4 | 0.00 | 0.00 | 0.00 | 18 | 1021.4 |
| 20260904194003 | 84 | 201 | 11.3 | 17.4 | 0.00 | 0.00 | 0.00 | 18 | 1021.4 |
| 20260904193504 | 84 | 193 | 9.6 | 15.6 | 0.00 | 0.00 | 0.00 | 18 | 1021.6 |
| 20260904193004 | 84 | 200 | 10.4 | 17.4 | 0.00 | 0.00 | 0.00 | 18 | 1021.5 |
| 20260904192504 | 84 | 213 | 10.4 | 13.9 | 0.00 | 0.00 | 0.00 | 18 | 1021.5 |
| 20260904192005 | 84 | 203 | 10.4 | 17.4 | 0.00 | 0.00 | 0.00 | 18 | 1021.6 |
| 20260904191504 | 84 | 190 | 10.4 | 17.4 | 0.00 | 0.00 | 0.00 | 17 | 1021.6 |
| 20260904191003 | 84 | 204 | 10.4 | 15.6 | 0.00 | 0.00 | 0.00 | 17 | 1021.7 |
| 20260904190004 | 84 | 180 | 10.4 | 18.2 | 0.00 | 0.00 | 0.00 | 18 | 1021.7 |
| 20260904185504 | 83 | 205 | 11.3 | 15.6 | 0.00 | 0.00 | 0.00 | 19 | 1021.8 |
| 20260904185004 | 83 | 202 | 10.4 | 18.2 | 0.00 | 0.00 | 0.00 | 19 | 1021.8 |
| 20260904184004 | 83 | 173 | 10.4 | 17.4 | 0.00 | 0.00 | 0.00 | 19 | 1021.7 |
| 20260904183504 | 83 | 166 | 10.4 | 18.2 | 0.00 | 0.00 | 0.00 | 20 | 1021.7 |
| 20260904183004 | 82 | 185 | 7.8 | 17.4 | 0.00 | 0.00 | 0.00 | 20 | 1021.8 |
| 20260904182504 | 82 | 196 | 10.4 | 15.6 | 0.00 | 0.00 | 0.00 | 20 | 1021.9 |
| 20260904182004 | 82 | 184 | 11.3 | 17.4 | 0.00 | 0.00 | 0.00 | 21 | 1021.9 |
| 20260904181504 | 81 | 176 | 7.0 | 11.3 | 0.00 | 0.00 | 0.00 | 21 | 1022.1 |
| 20260904181004 | 82 | 204 | 8.7 | 14.8 | 0.00 | 0.00 | 0.00 | 21 | 1022.1 |
| 20260904180504 | 82 | 201 | 8.7 | 15.6 | 0.00 | 0.00 | 0.00 | 21 | 1021.9 |
| 20260904180003 | 82 | 206 | 6.1 | 15.6 | 0.00 | 0.00 | 0.00 | 21 | 1022.0 |
| 20260904175503 | 82 | 211 | 9.6 | 13.0 | 0.00 | 0.00 | 0.00 | 21 | 1022.1 |
| 20260904175004 | 82 | 217 | 7.8 | 13.0 | 0.00 | 0.00 | 0.00 | 21 | 1022.1 |
| 20260904174503 | 82 | 235 | 7.8 | 13.0 | 0.00 | 0.00 | 0.00 | 21 | 1022.1 |
| 20260904173504 | 81 | 220 | 7.8 | 12.2 | 0.00 | 0.00 | 0.00 | 21 | 1022.1 |
| 20260904172004 | 81 | 193 | 6.1 | 18.2 | 0.00 | 0.00 | 0.00 | 23 | 1022.0 |
| 20260904171504 | 80 | 134 | 1.7 | 6.1 | 0.00 | 0.00 | 0.00 | 27 | 1021.9 |
| 20260904171004 | 80 | 114 | 0.9 | 6.1 | 0.00 | 0.00 | 0.00 | 27 | 1022.0 |
| 20260904170504 | 79 | 144 | 5.2 | 8.7 | 0.00 | 0.00 | 0.00 | 28 | 1022.0 |
| 20260904170003 | 79 | 80 | 2.6 | 6.1 | 0.00 | 0.00 | 0.00 | 28 | 1022.0 |
| 20260904165504 | 78 | 93 | 1.7 | 6.1 | 0.00 | 0.00 | 0.00 | 29 | 1021.9 |
| 20260904165004 | 78 | 124 | 5.2 | 7.8 | 0.00 | 0.00 | 0.00 | 29 | 1021.7 |
| 20260904164504 | 78 | 131 | 1.7 | 7.0 | 0.00 | 0.00 | 0.00 | 28 | 1021.7 |
| 20260904164005 | 78 | 113 | 1.7 | 7.8 | 0.00 | 0.00 | 0.00 | 29 | 1021.7 |
| 20260904163503 | 78 | 138 | 5.2 | 7.0 | 0.00 | 0.00 | 0.00 | 29 | 1021.6 |
| 20260904162504 | 78 | 86 | 1.7 | 5.2 | 0.00 | 0.00 | 0.00 | 29 | 1021.5 |
| 20260904162004 | 78 | 105 | 1.7 | 2.6 | 0.00 | 0.00 | 0.00 | 30 | 1021.4 |
| 20260904161504 | 78 | 94 | 1.7 | 4.3 | 0.00 | 0.00 | 0.00 | 29 | 1021.4 |
| 20260904161004 | 78 | 125 | 0.9 | 2.6 | 0.00 | 0.00 | 0.00 | 30 | 1021.3 |
| 20260904160504 | 77 | 90 | 0.9 | 2.6 | 0.00 | 0.00 | 0.00 | 30 | 1021.3 |
| 20260904160004 | 78 | 96 | 1.7 | 5.2 | 0.00 | 0.00 | 0.00 | 30 | 1021.3 |
| 20260904155504 | 78 | 150 | 1.7 | 2.6 | 0.00 | 0.00 | 0.00 | 30 | 1021.4 |
| 20260904155006 | 77 | 155 | 0.9 | 1.7 | 0.00 | 0.00 | 0.00 | 30 | 1021.4 |
| 20260904154504 | 77 | 155 | 0.0 | 2.6 | 0.00 | 0.00 | 0.00 | 30 | 1021.4 |
| 20260904154004 | 76 | 179 | 0.0 | 0.9 | 0.00 | 0.00 | 0.00 | 30 | 1021.5 |
| 20260904153004 | 77 | 181 | 0.0 | 1.7 | 0.00 | 0.00 | 0.00 | 30 | 1021.4 |
| 20260904152504 | 77 | 182 | 0.0 | 0.9 | 0.00 | 0.00 | 0.00 | 31 | 1021.4 |
| 20260904152003 | 77 | 204 | 0.0 | 1.7 | 0.00 | 0.00 | 0.00 | 31 | 1021.3 |
| 20260904151504 | 76 | 209 | 0.0 | 0.0 | 0.00 | 0.00 | 0.00 | 31 | 1021.3 |
| 20260904151003 | 75 | 209 | 0.0 | 0.0 | 0.00 | 0.00 | 0.00 | 32 | 1021.3 |
| 20260904150505 | 75 | 209 | 0.0 | 0.0 | 0.00 | 0.00 | 0.00 | 32 | 1021.2 |
| 20260904150005 | 73 | 209 | 0.0 | 0.0 | 0.00 | 0.00 | 0.00 | 32 | 1021.2 |
| 20260904145504 | 72 | 209 | 0.0 | 0.0 | 0.00 | 0.00 | 0.00 | 33 | 1021.2 |
| 20260904145003 | 71 | 209 | 0.0 | 0.0 | 0.00 | 0.00 | 0.00 | 34 | 1021.2 |
| 20260904144504 | 70 | 209 | 0.0 | 0.0 | 0.00 | 0.00 | 0.00 | 35 | 1021.1 |
| 20260904144004 | 69 | 209 | 0.0 | 0.0 | 0.00 | 0.00 | 0.00 | 36 | 1021.0 |
| 20260904143504 | 67 | 209 | 0.0 | 0.0 | 0.00 | 0.00 | 0.00 | 37 | 1021.0 |
| 20260904143003 | 67 | 209 | 0.0 | 0.0 | 0.00 | 0.00 | 0.00 | 38 | 1021.0 |
| 20260904142503 | 66 | 209 | 0.0 | 0.0 | 0.00 | 0.00 | 0.00 | 37 | 1020.9 |
| 20260904142004 | 66 | 209 | 0.9 | 2.6 | 0.00 | 0.00 | 0.00 | 37 | 1020.7 |
| 20260904141504 | 66 | 209 | 0.0 | 0.0 | 0.00 | 0.00 | 0.00 | 37 | 1020.7 |
| 20260904141004 | 66 | 209 | 0.0 | 0.9 | 0.00 | 0.00 | 0.00 | 39 | 1020.5 |
| 20260904140504 | 65 | 209 | 0.0 | 0.0 | 0.00 | 0.00 | 0.00 | 39 | 1020.5 |
| 20260904140004 | 65 | 209 | 0.0 | 2.6 | 0.00 | 0.00 | 0.00 | 39 | 1020.4 |
| 20260904135504 | 64 | 209 | 1.7 | 2.6 | 0.00 | 0.00 | 0.00 | 42 | 1020.4 |
| 20260904135005 | 62 | 225 | 0.9 | 2.6 | 0.00 | 0.00 | 0.00 | 43 | 1020.2 |
| 20260904134004 | 62 | 226 | 0.0 | 0.9 | 0.00 | 0.00 | 0.00 | 43 | 1020.1 |
| 20260904133504 | 62 | 226 | 0.0 | 0.9 | 0.00 | 0.00 | 0.00 | 42 | 1020.1 |
| 20260904133004 | 62 | 226 | 0.0 | 1.7 | 0.00 | 0.00 | 0.00 | 42 | 1019.9 |
| 20260904132003 | 63 | 222 | 0.9 | 1.7 | 0.00 | 0.00 | 0.00 | 40 | 1019.9 |
| 20260904131504 | 63 | 222 | 0.0 | 2.6 | 0.00 | 0.00 | 0.00 | 41 | 1019.9 |
| 20260904131004 | 63 | 223 | 0.9 | 2.6 | 0.00 | 0.00 | 0.00 | 41 | 1019.8 |
| 20260904130504 | 63 | 224 | 0.9 | 2.6 | 0.00 | 0.00 | 0.00 | 41 | 1019.7 |
| 20260904130004 | 63 | 225 | 0.9 | 2.6 | 0.00 | 0.00 | 0.00 | 40 | 1019.7 |
| 20260904125503 | 63 | 232 | 0.0 | 0.9 | 0.00 | 0.00 | 0.00 | 41 | 1019.7 |
| 20260904125005 | 63 | 232 | 1.7 | 4.3 | 0.00 | 0.00 | 0.00 | 39 | 1019.7 |
| 20260904124504 | 63 | 224 | 2.6 | 2.6 | 0.00 | 0.00 | 0.00 | 40 | 1019.5 |
| 20260904124005 | 63 | 215 | 2.6 | 5.2 | 0.00 | 0.00 | 0.00 | 41 | 1019.6 |
| 20260904123503 | 62 | 224 | 1.7 | 2.6 | 0.00 | 0.00 | 0.00 | 42 | 1019.6 |
| 20260904123004 | 62 | 228 | 0.0 | 1.7 | 0.00 | 0.00 | 0.00 | 42 | 1019.6 |
| 20260904122504 | 62 | 230 | 0.9 | 2.6 | 0.00 | 0.00 | 0.00 | 43 | 1019.6 |
| 20260904122004 | 62 | 230 | 1.7 | 4.3 | 0.00 | 0.00 | 0.00 | 42 | 1019.6 |
| 20260904121504 | 61 | 234 | 0.9 | 2.6 | 0.00 | 0.00 | 0.00 | 44 | 1019.7 |
| 20260904121003 | 61 | 236 | 0.9 | 1.7 | 0.00 | 0.00 | 0.00 | 45 | 1019.6 |
| 20260904120504 | 61 | 238 | 0.0 | 0.9 | 0.00 | 0.00 | 0.00 | 46 | 1019.7 |
| 20260904120004 | 61 | 238 | 0.0 | 1.7 | 0.00 | 0.00 | 0.00 | 45 | 1019.5 |
| 20260904115504 | 61 | 238 | 0.9 | 2.6 | 0.00 | 0.00 | 0.00 | 46 | 1019.7 |
| 20260904114504 | 60 | 235 | 0.9 | 1.7 | 0.00 | 0.00 | 0.00 | 46 | 1019.8 |
| 20260904114003 | 60 | 235 | 0.9 | 1.7 | 0.00 | 0.00 | 0.00 | 46 | 1019.7 |
| 20260904113503 | 60 | 231 | 0.0 | 0.9 | 0.00 | 0.00 | 0.00 | 47 | 1019.8 |
| 20260904113004 | 60 | 231 | 0.0 | 0.0 | 0.00 | 0.00 | 0.00 | 48 | 1019.6 |
| 20260904112504 | 59 | 231 | 0.0 | 0.9 | 0.00 | 0.00 | 0.00 | 47 | 1019.6 |
| 20260904112004 | 59 | 231 | 0.0 | 0.0 | 0.00 | 0.00 | 0.00 | 47 | 1019.7 |
| 20260904111504 | 60 | 231 | 0.0 | 0.0 | 0.00 | 0.00 | 0.00 | 47 | 1019.6 |
| 20260904111004 | 60 | 231 | 0.0 | 0.0 | 0.00 | 0.00 | 0.00 | 47 | 1019.6 |
| 20260904110003 | 60 | 230 | 0.0 | 0.0 | 0.00 | 0.00 | 0.00 | 47 | 1019.4 |
| 20260904105503 | 60 | 230 | 0.0 | 0.0 | 0.00 | 0.00 | 0.00 | 46 | 1019.4 |
| 20260904105005 | 61 | 230 | 0.0 | 1.7 | 0.00 | 0.00 | 0.00 | 45 | 1019.5 |
| 20260904104504 | 61 | 230 | 0.0 | 1.7 | 0.00 | 0.00 | 0.00 | 45 | 1019.4 |
| 20260904103504 | 61 | 229 | 0.0 | 2.6 | 0.00 | 0.00 | 0.00 | 45 | 1019.4 |
| 20260904103003 | 61 | 224 | 0.9 | 2.6 | 0.00 | 0.00 | 0.00 | 45 | 1019.3 |
| 20260904102504 | 61 | 213 | 0.9 | 1.7 | 0.00 | 0.00 | 0.00 | 46 | 1019.3 |
| 20260904102004 | 62 | 212 | 0.0 | 0.0 | 0.00 | 0.00 | 0.00 | 46 | 1019.4 |
| 20260904101504 | 62 | 212 | 0.9 | 2.6 | 0.00 | 0.00 | 0.00 | 47 | 1019.3 |
| 20260904100503 | 61 | 223 | 1.7 | 2.6 | 0.00 | 0.00 | 0.00 | 50 | 1019.2 |
| 20260904095004 | 61 | 200 | 0.9 | 2.6 | 0.00 | 0.00 | 0.00 | 51 | 1019.2 |
| 20260904094504 | 62 | 190 | 0.9 | 1.7 | 0.00 | 0.00 | 0.00 | 49 | 1019.2 |
| 20260904093506 | 62 | 190 | 0.9 | 2.6 | 0.00 | 0.00 | 0.00 | 51 | 1019.3 |
| 20260904093004 | 61 | 192 | 0.0 | 0.9 | 0.00 | 0.00 | 0.00 | 48 | 1019.2 |
| 20260904092504 | 62 | 192 | 0.0 | 0.0 | 0.00 | 0.00 | 0.00 | 47 | 1019.3 |
| 20260904092004 | 62 | 192 | 0.0 | 0.0 | 0.00 | 0.00 | 0.00 | 46 | 1019.3 |
| 20260904091503 | 62 | 192 | 0.0 | 0.0 | 0.00 | 0.00 | 0.00 | 47 | 1019.3 |
| 20260904091004 | 61 | 192 | 0.0 | 0.0 | 0.00 | 0.00 | 0.00 | 45 | 1019.3 |
| 20260904090504 | 62 | 192 | 0.0 | 0.0 | 0.00 | 0.00 | 0.00 | 45 | 1019.3 |
| 20260904090005 | 62 | 192 | 0.0 | 0.0 | 0.00 | 0.00 | 0.00 | 45 | 1019.3 |
| 20260904085505 | 63 | 191 | 0.0 | 0.0 | 0.00 | 0.00 | 0.00 | 44 | 1019.5 |
| 20260904085005 | 63 | 191 | 0.0 | 0.0 | 0.00 | 0.00 | 0.00 | 44 | 1019.4 |
| 20260904084503 | 64 | 191 | 0.0 | 1.7 | 0.00 | 0.00 | 0.00 | 43 | 1019.5 |
| 20260904084004 | 64 | 228 | 0.0 | 1.7 | 0.00 | 0.00 | 0.00 | 42 | 1019.4 |
| 20260904083504 | 64 | 237 | 0.0 | 0.0 | 0.00 | 0.00 | 0.00 | 41 | 1019.4 |
| 20260904083004 | 65 | 237 | 0.0 | 2.6 | 0.00 | 0.00 | 0.00 | 41 | 1019.4 |
| 20260904082004 | 66 | 261 | 0.0 | 0.9 | 0.00 | 0.00 | 0.00 | 40 | 1019.4 |
| 20260904081504 | 66 | 261 | 0.0 | 0.0 | 0.00 | 0.00 | 0.00 | 39 | 1019.3 |
| 20260904080504 | 68 | 235 | 0.0 | 1.7 | 0.00 | 0.00 | 0.00 | 39 | 1019.4 |
| 20260904080004 | 68 | 235 | 0.0 | 0.0 | 0.00 | 0.00 | 0.00 | 40 | 1019.4 |
| 20260904075504 | 69 | 235 | 0.0 | 1.7 | 0.00 | 0.00 | 0.00 | 40 | 1019.5 |
| 20260904074504 | 70 | 225 | 1.7 | 4.3 | 0.00 | 0.00 | 0.00 | 40 | 1019.6 |
| 20260904074004 | 71 | 240 | 0.9 | 2.6 | 0.00 | 0.00 | 0.00 | 38 | 1019.7 |
| 20260904072504 | 70 | 295 | 4.3 | 7.0 | 0.00 | 0.00 | 0.00 | 39 | 1019.5 |
| 20260904071504 | 68 | 305 | 0.0 | 1.7 | 0.00 | 0.00 | 0.00 | 41 | 1019.3 |
| 20260904070504 | 68 | 200 | 0.0 | 0.9 | 0.00 | 0.00 | 0.00 | 38 | 1019.2 |
| 20260904070004 | 69 | 180 | 0.0 | 2.6 | 0.00 | 0.00 | 0.00 | 38 | 1019.2 |
| 20260904065505 | 69 | 170 | 0.0 | 2.6 | 0.00 | 0.00 | 0.00 | 38 | 1019.2 |
| 20260904064503 | 69 | 161 | 1.7 | 4.3 | 0.00 | 0.00 | 0.00 | 38 | 1019.2 |
| 20260904064004 | 68 | 186 | 0.0 | 1.7 | 0.00 | 0.00 | 0.00 | 39 | 1019.2 |
| 20260904063003 | 69 | 243 | 0.0 | 0.0 | 0.00 | 0.00 | 0.00 | 38 | 1019.3 |
| 20260904062504 | 70 | 243 | 0.0 | 0.0 | 0.00 | 0.00 | 0.00 | 37 | 1019.2 |
| 20260904062004 | 70 | 243 | 0.0 | 0.0 | 0.00 | 0.00 | 0.00 | 37 | 1019.3 |
| 20260904061504 | 71 | 243 | 0.0 | 0.0 | 0.00 | 0.00 | 0.00 | 37 | 1019.2 |
| 20260904061004 | 71 | 243 | 0.0 | 2.6 | 0.00 | 0.00 | 0.00 | 36 | 1019.3 |
| 20260904060504 | 72 | 206 | 6.1 | 10.4 | 0.00 | 0.00 | 0.00 | 37 | 1019.2 |
| 20260904060004 | 72 | 178 | 7.0 | 10.4 | 0.00 | 0.00 | 0.00 | 37 | 1019.3 |
| 20260904055504 | 72 | 190 | 5.2 | 8.7 | 0.00 | 0.00 | 0.00 | 36 | 1019.3 |
| 20260904054003 | 71 | 166 | 7.0 | 10.4 | 0.00 | 0.00 | 0.00 | 36 | 1019.3 |
| 20260904053504 | 71 | 188 | 4.3 | 7.0 | 0.00 | 0.00 | 0.00 | 36 | 1019.3 |
| 20260904053005 | 71 | 193 | 3.5 | 6.1 | 0.00 | 0.00 | 0.00 | 36 | 1019.3 |
| 20260904052504 | 71 | 192 | 5.2 | 7.0 | 0.00 | 0.00 | 0.00 | 36 | 1019.2 |
| 20260904052004 | 72 | 199 | 5.2 | 6.1 | 0.00 | 0.00 | 0.00 | 36 | 1019.5 |
| 20260904051504 | 72 | 208 | 2.6 | 6.1 | 0.00 | 0.00 | 0.00 | 35 | 1019.5 |
| 20260904051004 | 71 | 190 | 4.3 | 7.0 | 0.00 | 0.00 | 0.00 | 36 | 1019.5 |
| 20260904050504 | 72 | 186 | 0.0 | 0.9 | 0.00 | 0.00 | 0.00 | 35 | 1019.5 |
| 20260904050004 | 72 | 186 | 0.0 | 0.9 | 0.00 | 0.00 | 0.00 | 35 | 1019.5 |
| 20260904045504 | 73 | 186 | 1.7 | 6.1 | 0.00 | 0.00 | 0.00 | 35 | 1019.5 |
| 20260904044504 | 74 | 183 | 4.3 | 7.0 | 0.00 | 0.00 | 0.00 | 35 | 1019.5 |
| 20260904043504 | 74 | 248 | 0.9 | 7.0 | 0.00 | 0.00 | 0.00 | 35 | 1019.5 |
| 20260904043004 | 74 | 255 | 1.7 | 4.3 | 0.00 | 0.00 | 0.00 | 35 | 1019.5 |
| 20260904042504 | 74 | 251 | 2.6 | 7.0 | 0.00 | 0.00 | 0.00 | 35 | 1019.5 |
| 20260904042004 | 74 | 231 | 2.6 | 5.2 | 0.00 | 0.00 | 0.00 | 35 | 1019.5 |
| 20260904041504 | 74 | 265 | 1.7 | 5.2 | 0.00 | 0.00 | 0.00 | 35 | 1019.5 |
| 20260904041006 | 75 | 255 | 1.7 | 7.0 | 0.00 | 0.00 | 0.00 | 34 | 1019.5 |
| 20260904040504 | 75 | 253 | 0.9 | 2.6 | 0.00 | 0.00 | 0.00 | 34 | 1019.4 |
| 20260904040004 | 75 | 267 | 1.7 | 5.2 | 0.00 | 0.00 | 0.00 | 34 | 1019.4 |
| 20260904035505 | 76 | 286 | 3.5 | 7.0 | 0.00 | 0.00 | 0.00 | 34 | 1019.4 |
| 20260904035004 | 76 | 291 | 2.6 | 7.8 | 0.00 | 0.00 | 0.00 | 34 | 1019.2 |
| 20260904034504 | 75 | 291 | 5.2 | 8.7 | 0.00 | 0.00 | 0.00 | 33 | 1019.2 |
| 20260904034004 | 74 | 270 | 1.7 | 5.2 | 0.00 | 0.00 | 0.00 | 36 | 1019.1 |
| 20260904033504 | 74 | 273 | 2.6 | 7.0 | 0.00 | 0.00 | 0.00 | 36 | 1019.1 |
| 20260904033004 | 75 | 267 | 3.5 | 6.1 | 0.00 | 0.00 | 0.00 | 36 | 1019.0 |
| 20260904032004 | 75 | 235 | 4.3 | 7.0 | 0.00 | 0.00 | 0.00 | 36 | 1019.0 |
| 20260904030503 | 76 | 222 | 6.1 | 11.3 | 0.00 | 0.00 | 0.00 | 34 | 1018.8 |
| 20260904025005 | 76 | 229 | 7.8 | 10.4 | 0.00 | 0.00 | 0.00 | 34 | 1018.9 |
| 20260904024504 | 76 | 236 | 4.3 | 10.4 | 0.00 | 0.00 | 0.00 | 34 | 1019.0 |
| 20260904024005 | 77 | 237 | 4.3 | 10.4 | 0.00 | 0.00 | 0.00 | 33 | 1019.0 |
| 20260904023505 | 77 | 236 | 5.2 | 10.4 | 0.00 | 0.00 | 0.00 | 32 | 1018.9 |
| 20260904023004 | 78 | 216 | 5.2 | 10.4 | 0.00 | 0.00 | 0.00 | 30 | 1018.8 |
| 20260904022504 | 78 | 206 | 3.5 | 6.1 | 0.00 | 0.00 | 0.00 | 30 | 1018.8 |
| 20260904022005 | 78 | 223 | 4.3 | 7.8 | 0.00 | 0.00 | 0.00 | 31 | 1018.9 |
| 20260904021504 | 78 | 242 | 1.7 | 5.2 | 0.00 | 0.00 | 0.00 | 31 | 1018.9 |
| 20260904021004 | 79 | 270 | 3.5 | 10.4 | 0.00 | 0.00 | 0.00 | 30 | 1019.0 |
| 20260904020504 | 79 | 224 | 5.2 | 10.4 | 0.00 | 0.00 | 0.00 | 30 | 1018.9 |
| 20260904020005 | 80 | 238 | 5.2 | 10.4 | 0.00 | 0.00 | 0.00 | 28 | 1019.0 |
| 20260904015504 | 80 | 210 | 7.0 | 10.4 | 0.00 | 0.00 | 0.00 | 27 | 1018.9 |
| 20260904015005 | 80 | 208 | 6.1 | 10.4 | 0.00 | 0.00 | 0.00 | 28 | 1018.9 |
| 20260904014504 | 81 | 218 | 6.1 | 11.3 | 0.00 | 0.00 | 0.00 | 27 | 1018.8 |
| 20260904014004 | 81 | 225 | 8.7 | 13.9 | 0.00 | 0.00 | 0.00 | 27 | 1018.9 |
| 20260904013504 | 81 | 216 | 7.8 | 13.9 | 0.00 | 0.00 | 0.00 | 27 | 1018.9 |
| 20260904012503 | 82 | 217 | 6.1 | 11.3 | 0.00 | 0.00 | 0.00 | 25 | 1018.8 |
| 20260904011505 | 83 | 214 | 8.7 | 13.9 | 0.00 | 0.00 | 0.00 | 24 | 1018.7 |
| 20260904011005 | 84 | 210 | 6.1 | 10.4 | 0.00 | 0.00 | 0.00 | 24 | 1018.8 |
| 20260904010504 | 84 | 220 | 7.8 | 13.0 | 0.00 | 0.00 | 0.00 | 23 | 1018.8 |
| 20260904010004 | 84 | 216 | 7.8 | 13.0 | 0.00 | 0.00 | 0.00 | 23 | 1018.7 |
| 20260904005504 | 84 | 207 | 8.7 | 13.0 | 0.00 | 0.00 | 0.00 | 23 | 1018.7 |
| 20260904005004 | 85 | 229 | 7.0 | 14.8 | 0.00 | 0.00 | 0.00 | 23 | 1018.7 |
| 20260904004504 | 85 | 230 | 6.1 | 11.3 | 0.00 | 0.00 | 0.00 | 22 | 1018.7 |
| 20260904004004 | 85 | 229 | 10.4 | 14.8 | 0.00 | 0.00 | 0.00 | 22 | 1018.7 |
| 20260904003505 | 85 | 222 | 7.8 | 13.9 | 0.00 | 0.00 | 0.00 | 22 | 1018.8 |
| 20260904003004 | 85 | 226 | 8.7 | 13.9 | 0.00 | 0.00 | 0.00 | 21 | 1018.8 |
| 20260904002004 | 85 | 208 | 12.2 | 17.4 | 0.00 | 0.00 | 0.00 | 21 | 1019.0 |
| 20260904001504 | 85 | 217 | 8.7 | 13.0 | 0.00 | 0.00 | 0.00 | 19 | 1018.9 |
| 20260904001004 | 86 | 220 | 8.7 | 14.8 | 0.00 | 0.00 | 0.00 | 19 | 1019.0 |
| 20260904000504 | 85 | 182 | 8.7 | 14.8 | 0.00 | 0.00 | 0.00 | 19 | 1018.9 |
| 20260904000004 | 86 | 199 | 7.8 | 13.9 | 0.00 | 0.00 | 0.00 | 19 | 1019.0 |
| 20260903235004 | 86 | 201 | 9.6 | 14.8 | 0.00 | 0.00 | 0.00 | 18 | 1019.2 |
| 20260903234505 | 86 | 179 | 11.3 | 19.1 | 0.00 | 0.00 | 0.00 | 18 | 1019.3 |
| 20260903234004 | 86 | 174 | 10.4 | 21.7 | 0.00 | 0.00 | 0.00 | 19 | 1019.3 |
| 20260903233504 | 86 | 178 | 11.3 | 20.0 | 0.00 | 0.00 | 0.00 | 18 | 1019.3 |
| 20260903233004 | 86 | 203 | 8.7 | 17.4 | 0.00 | 0.00 | 0.00 | 18 | 1019.3 |
| 20260903232504 | 86 | 177 | 10.4 | 17.4 | 0.00 | 0.00 | 0.00 | 18 | 1019.3 |
| 20260903231504 | 87 | 181 | 8.7 | 13.9 | 0.00 | 0.00 | 0.00 | 18 | 1019.4 |
| 20260903230504 | 87 | 157 | 10.4 | 18.2 | 0.00 | 0.00 | 0.00 | 18 | 1019.5 |
| 20260903230003 | 87 | 179 | 9.6 | 17.4 | 0.00 | 0.00 | 0.00 | 17 | 1019.5 |
| 20260903225503 | 87 | 162 | 11.3 | 20.9 | 0.00 | 0.00 | 0.00 | 17 | 1019.5 |
| 20260903225003 | 87 | 158 | 13.0 | 17.4 | 0.00 | 0.00 | 0.00 | 17 | 1019.6 |
| 20260903224503 | 87 | 173 | 10.4 | 17.4 | 0.00 | 0.00 | 0.00 | 17 | 1019.6 |
| 20260903224003 | 87 | 199 | 11.3 | 15.6 | 0.00 | 0.00 | 0.00 | 17 | 1019.6 |
| 20260903223503 | 87 | 185 | 10.4 | 17.4 | 0.00 | 0.00 | 0.00 | 17 | 1019.7 |
| 20260903222502 | 87 | 172 | 10.4 | 19.1 | 0.00 | 0.00 | 0.00 | 17 | 1019.8 |
| 20260903222003 | 87 | 174 | 9.6 | 15.6 | 0.00 | 0.00 | 0.00 | 17 | 1019.8 |
| 20260903221502 | 87 | 205 | 10.4 | 15.6 | 0.00 | 0.00 | 0.00 | 17 | 1019.9 |
| 20260903221002 | 87 | 188 | 13.9 | 18.2 | 0.00 | 0.00 | 0.00 | 17 | 1020.0 |
| 20260903220502 | 87 | 192 | 9.6 | 17.4 | 0.00 | 0.00 | 0.00 | 17 | 1020.0 |